User: anonymous   Login
Location: Caltech
(34.1382°N, 118.1253°W)
Time: 18:43:13
(UTC-07:00)
Language:

ADEOS II - Orbit

View from above orbital plane
View from above orbital plane
View from above satellite
View from above satellite

Ground track
Ground track

The orbit data is extracted from the following two-line orbital elements,

1 27597U 02056A   16270.52998695  .00000078  00000-0  48664-4 0  9999
2 27597  98.3333 245.8357 0001938  57.5916 302.5453 14.27235726717814
Epoch (UTC): 26 September 2016 12:43:10
Eccentricity: 0.0001938
inclination: 98.3333°
perigee height: 799 km
apogee height: 802 km
right ascension of ascending node: 245.8357°
argument of perigee: 57.5916°
revolutions per day: 14.27235726
mean anomaly at epoch: 302.5453°
orbit number at epoch: 71781

The dashed part of the orbit path shows where the satellite is in the earth's shadow,  

DLR